Location: Caltech
(34.1382°N, 118.1253°W)
Time: 03:15:18
(UTC-07:00)

AO-27 - Visible Passes

Search period start: 28 September 2016 00:00
Search period end: 08 October 2016 00:00
Orbit: 785 x 798 km, 98.8° (Epoch: 26 September)

Date Brightness Start Highest point End Pass type
(mag) Time Alt. Az. Time Alt. Az. Time Alt. Az.
28 Sep 9.4 03:58:57 10° NNE 04:01:09 26° NNE 04:01:09 26° NNE visible
29 Sep 10.0 03:30:08 10° NNE 03:31:40 19° NE 03:31:40 19° NE visible
29 Sep 9.5 05:10:44 10° NNW 05:12:25 16° NW 05:12:25 16° NW visible
30 Sep 10.6 03:01:51 10° NE 03:02:11 11° NE 03:02:11 11° NE visible
30 Sep 9.3 04:40:49 10° N 04:42:57 22° NNW 04:42:57 22° NNW visible
01 Oct 9.4 04:11:26 10° N 04:13:27 24° N 04:13:27 24° N visible
02 Oct 9.9 03:42:28 10° NNE 03:43:58 19° NNE 03:43:58 19° NNE visible
02 Oct 9.7 05:23:56 10° NNW 05:24:43 12° NW 05:24:43 12° NW visible
03 Oct 10.5 03:13:56 10° NE 03:14:29 13° NE 03:14:29 13° NE visible
03 Oct 9.4 04:53:35 10° NNW 04:55:15 18° NNW 04:55:15 18° NNW visible
04 Oct 9.5 04:24:00 10° N 04:25:45 21° N 04:25:45 21° N visible
05 Oct 9.8 03:54:52 10° NNE 03:56:16 19° NNE 03:56:16 19° NNE visible
06 Oct 10.3 03:26:08 10° NNE 03:26:47 13° NNE 03:26:47 13° NNE visible
06 Oct 9.6 05:06:27 10° NNW 05:07:31 14° NNW 05:07:31 14° NNW visible
07 Oct 9.6 04:36:38 10° N 04:38:02 18° NNW 04:38:02 18° NNW visible
